Hourly Data Report for October 04, 2016

All times are specified in Local Standard Time (LST). Add 1 hour to adjust for Daylight Saving Time where and when it is observed.

CHARLOTTETOWN A
PRINCE EDWARD ISLAND

46°17'21.000" N
63°07'09.000" W
48.50 m
8300301
71706
YYG

Download Data

Hourly Data (October 2016)
Hourly Data Report for October 4, 2016
Temp Definition
°C
Dew Point Temp Definition
°C
Rel Hum Definition
%
Wind Dir Definition
10's deg

Wind Spd Definition
km/h
Visibility Definition
km
Stn Press Definition
kPa
Hmdx Definition


Wind Chill Definition


Weather Definition


TIME
00:00 Legend Double Dagger 3.4 0.3 80 33 3 24.1 101.90     LegendNANA
01:00 Legend Double Dagger 3.4 0.6 82 25 4 24.1 101.98     LegendNANA
02:00 Legend Double Dagger 3.0 0.6 84 25 8 24.1 102.01     Mainly Clear
03:00 Legend Double Dagger 3.8 0.9 81 27 9 24.1 102.05     LegendNANA
04:00 Legend Double Dagger 3.5 0.6 81 26 7 24.1 102.13     LegendNANA
05:00 Legend Double Dagger 3.4 0.6 82 29 8 24.1 102.17     Mainly Clear
06:00 Legend Double Dagger 3.4 1.5 87 28 8 24.1 102.23     LegendNANA
07:00 Legend Double Dagger 6.5 2.8 77 29 11 80.5 102.30     LegendNANA
08:00 Legend Double Dagger 7.2 3.6 78 27 9 24.1 102.35     Mainly Clear
09:00 Legend Double Dagger 9.4 4.8 73 28 13 24.1 102.37     LegendNANA
10:00 Legend Double Dagger 9.9 3.9 66 28 11 24.1 102.42     LegendNANA
11:00 Legend Double Dagger 12.0 3.6 56 25 10 24.1 102.42     Mostly Cloudy
12:00 Legend Double Dagger 12.2 4.2 58 28 6 24.1 102.41     LegendNANA
13:00 Legend Double Dagger 13.1 4.3 55 29 7 24.1 102.36     LegendNANA
14:00 Legend Double Dagger 13.7 3.5 50 32 10 24.1 102.32     Mainly Clear
15:00 Legend Double Dagger 13.4 5.4 58 20 21 24.1 102.26     LegendNANA
16:00 Legend Double Dagger 12.4 4.2 57 22 16 24.1 102.27     LegendNANA
17:00 Legend Double Dagger 11.8 2.3 52 24 13 24.1 102.30     Mainly Clear
18:00 Legend Double Dagger 8.2 2.3 66 22 5 24.1 102.26     LegendNANA
19:00 Legend Double Dagger 8.9 3.1 67 21 8 24.1 102.27     LegendNANA
20:00 Legend Double Dagger 8.6 5.0 78 21 10 24.1 102.27     Mainly Clear
21:00 Legend Double Dagger 6.6 3.8 82 21 5 24.1 102.28     LegendNANA
22:00 Legend Double Dagger 8.0 5.0 81 25 6 24.1 102.22     LegendNANA
23:00 Legend Double Dagger 7.0 4.8 86 26 8 24.1 102.18     Mainly Clear

Notes on Data Quality.

Legend

  • E = Estimated
  • M = Missing
  • NA = Not Available
  • ‡ = Partner data that is not subject to review by the National Climate Archives
Date modified: